Other Public Products
Issued by NWS Charleston, SC

Current Version | Previous Version | Graphics & Text | Print | Product List | Glossary On
Versions: 1 2 3 4 5 6 7 8 9 10 11 12 13 14 15 16 17 18 19 20 21 22 23 24 25 26 27 28 29 30 31 32 33 34 35 36 37 38 39 40 41 42 43 44 45 46 47 48 49 50
936
FPUS82 KCHS 190512
OPUCHS

TEST...KCHS/KSAV Gateway Observations...TEST
National Weather Service Charleston SC
100 AM EDT THU APR 19 2018

NOTE: "fair" indicates few or no clouds below 12,000 feet with no
significant weather and/or obstructions to visibility.

SCZ050-WAZ558-NCZ071-TXZ119-213-PAZ071-DCZ001-FLZ074-172-MI076-
NYZ176-178-MAZ016-IL014-TNZ027-NJZ106-GAZ044-MD014-190600-

...Gateway Observations for Charleston International...

CITY           SKY/WX    TMP DP  RH WIND       PRES   REMARKS
Chas Airport   FAIR      70  52  52 SW10      29.92R
Seattle        MOCLDY    51  41  68 NE6       30.19R
Charlotte      FAIR      73  44  35 SW18G28   29.77F
Dallas DFW     PTCLDY    62  34  35 NW6       30.17R
Dallas Love    PTCLDY    60  40  47 N3        30.18R
Philladelphia  CLOUDY    49  37  63 E5        29.73F
Wash National  FAIR      52  41  66 E3        29.67F
Baltimore      FAIR      49  41  74 NE3       29.67F
Miami          FAIR      71  60  68 E7        30.11S
Detroit        CLOUDY    35  27  72 N13       29.87R WCI  26
Newark         CLOUDY    48  31  51 N12       29.75F
Laguardia      CLOUDY    48  33  56 NE8       29.76R
J F K          CLOUDY    48  38  68 N8        29.75F
Boston Logan   FAIR      43  29  57 W7        29.76S
Ft. Lauderdale FAIR      74  59  59 SE9       30.10S
Chicago O`Hare LGT SNOW  32  32 100 N12       29.94R FOG     WCI  23
Chicago Midway LGT SNOW  33  32  96 NW12      29.94R VSB 1   WCI  24
Houston Bush   FAIR      70  67  90 NW3       30.08S
Houston Hobby  MOCLDY    72  68  87 SW3       30.07S
Nashville      FAIR      56  42  59 N16G24    29.97R
Atlanta        FAIR      69  54  58 W8        29.94S

$$

GAZ044-118-TXZ119-213-NCZ071-DCZ001-MDZ014-506-PAZ021-071-NJZ106-
NYZ176-178-MAZ106-OHZ011-021-055-MIZ076-KYZ091-ILZ014-INZ047-
MNZ060-ONZ431-190600-

...Gateway Observations for Savannah International...

CITY           SKY/WX    TMP DP  RH WIND       PRES   REMARKS
Savannah Arpt  FAIR      69  39  33 SW9       29.95S
Atlanta        FAIR      69  54  58 W8        29.94S
Charlotte      FAIR      73  44  35 SW18G28   29.77F
Dallas DFW     PTCLDY    62  34  35 NW6       30.17R
Houston Bush   FAIR      70  67  90 NW3       30.08S
Wash National  FAIR      52  41  66 E3        29.67F
Wash Dulles    FAIR      48  40  73 E3        29.66F
Baltimore      FAIR      49  41  74 NE3       29.67F
Philadelphia   CLOUDY    49  37  63 E5        29.73F
Newark         CLOUDY    48  31  51 N12       29.75F
Laguardia      CLOUDY    48  33  56 NE8       29.76R
J F K          CLOUDY    48  38  68 N8        29.75F
Boston         FAIR      43  29  57 W7        29.76S
Pittsburg      LGT RAIN  44  41  89 N6        29.72R
Akron          LGT RAIN  37  31  78 NE6       29.76S WCI  32
Cleveland      CLOUDY    37  32  82 N13       29.82R WCI  29
Cincinnati     CLOUDY    45  34  65 NW15      29.86R
Columbus       MOCLDY    44  44 100 W3        29.78R
Detroit        CLOUDY    35  27  72 N13       29.87R WCI  26
Chicago O`Hare LGT SNOW  32  32 100 N12       29.94R FOG     WCI  23
Minneapolis    FAIR      34  17  50 N10       30.21R WCI  26
Indianapolis   CLOUDY    38  30  73 NW16G26   29.91R WCI  29
Toronto Canada MOCLDY    34  25  69 N15       29.75F WCI  24

$$




USA.gov is the U.S. government's official web portal to all federal, state and local government web resources and services.